Weiss Lake Weather Center

Moon Phase Calendar



Weiss Lake Water Level
Online Cameras

 


      

Current Conditions in Cedar Bluff
11/24/2020 12:32:25 AM

37°F
Feels Like 31
Clear
Humidity
82%
Pressure
30.24"
Wind
5 mph (ENE)
Dew Point
32°F
UV Index
3/10 (Moderate)
Visibility
6 mi

Hourly Forecast

Date & Time Tue, Nov 24
12:00 AM
Tue, Nov 24
1:00 AM
Tue, Nov 24
2:00 AM
Tue, Nov 24
3:00 AM
Tue, Nov 24
4:00 AM
Tue, Nov 24
5:00 AM
Tue, Nov 24
6:00 AM
Tue, Nov 24
7:00 AM
Tue, Nov 24
8:00 AM
Tue, Nov 24
9:00 AM
Tue, Nov 24
10:00 AM
Tue, Nov 24
11:00 AM
Tue, Nov 24
12:00 PM
Tue, Nov 24
1:00 PM
Tue, Nov 24
2:00 PM
Tue, Nov 24
3:00 PM
Tue, Nov 24
4:00 PM
Tue, Nov 24
5:00 PM
Tue, Nov 24
6:00 PM
Tue, Nov 24
7:00 PM
Tue, Nov 24
8:00 PM
Tue, Nov 24
9:00 PM
Tue, Nov 24
10:00 PM
Tue, Nov 24
11:00 PM
Wed, Nov 25
12:00 AM
Wed, Nov 25
1:00 AM
Wed, Nov 25
2:00 AM
Wed, Nov 25
3:00 AM
Wed, Nov 25
4:00 AM
Wed, Nov 25
5:00 AM
Wed, Nov 25
6:00 AM
Wed, Nov 25
7:00 AM
Wed, Nov 25
8:00 AM
Wed, Nov 25
9:00 AM
Wed, Nov 25
10:00 AM
Wed, Nov 25
11:00 AM
Wed, Nov 25
12:00 PM
Wed, Nov 25
1:00 PM
Wed, Nov 25
2:00 PM
Wed, Nov 25
3:00 PM
Wed, Nov 25
4:00 PM
Wed, Nov 25
5:00 PM
Wed, Nov 25
6:00 PM
Wed, Nov 25
7:00 PM
Wed, Nov 25
8:00 PM
Wed, Nov 25
9:00 PM
Wed, Nov 25
10:00 PM
Wed, Nov 25
11:00 PM
Condition
Clear

Clear

Clouds

Clouds

Clouds

Clouds

Clouds

Clouds

Clouds

Clear

Clear

Clear

Clouds

Clouds

Clouds

Clouds

Clouds

Clouds

Clouds

Clouds

Clouds

Clouds

Clouds

Clouds

Clouds

Clouds

Clouds

Clouds

Clouds

Clouds

Clouds

Clouds

Clouds

Clouds

Clouds

Clouds

Clouds

Clouds

Clouds

Clouds

Clouds

Clouds

Rain

Rain

Rain

Rain

Rain

Rain
Temperature 37°F38°F39°F39°F39°F39°F39°F40°F46°F51°F55°F58°F60°F61°F60°F59°F56°F52°F50°F50°F49°F49°F49°F49°F49°F49°F50°F50°F52°F55°F56°F57°F58°F61°F63°F65°F66°F65°F65°F64°F64°F63°F63°F62°F61°F62°F63°F63°F
Feels Like 31°F32°F33°F33°F33°F33°F33°F34°F39°F43°F47°F49°F51°F53°F53°F53°F50°F46°F44°F43°F42°F43°F43°F44°F44°F45°F45°F45°F48°F51°F52°F53°F53°F55°F57°F59°F62°F63°F62°F61°F63°F63°F61°F61°F61°F62°F63°F63°F
Cloudiness 1%8%46%67%68%62%62%26%13%9%6%5%17%90%88%91%92%92%93%100%100%100%100%100%100%100%100%100%100%100%100%100%100%100%99%96%96%99%99%100%100%100%100%80%58%70%77%82%
Visibility 6 mi6 mi6 mi6 mi6 mi6 mi6 mi6 mi6 mi6 mi6 mi6 mi6 mi6 mi6 mi6 mi6 mi6 mi6 mi6 mi6 mi6 mi6 mi6 mi6 mi6 mi6 mi6 mi6 mi6 mi6 mi6 mi6 mi6 mi6 mi6 mi6 mi6 mi6 mi6 mi6 mi6 mi6 mi6 mi6 mi6 mi4 mi6 mi
Precipitation 0%0%0%0%0%0%0%0%0%0%0%0%0%0%0%0%0%0%0%0%0%0%0%0%0%0%0%0%0%0%0%0%0%1%1%1%5%38%41%44%32%32%41%86%86%89%94%100%
Humidity 80%81%81%80%79%78%77%76%65%58%51%46%43%43%46%52%62%68%69%67%66%69%74%80%86%90%92%93%91%89%87%87%84%78%74%72%70%76%79%81%82%85%89%91%93%93%93%95%
Dew Point 32°F33°F34°F33°F33°F33°F33°F34°F35°F37°F38°F38°F38°F38°F40°F42°F43°F42°F41°F39°F39°F40°F41°F44°F45°F47°F48°F48°F50°F52°F53°F53°F54°F54°F55°F56°F57°F57°F58°F58°F59°F59°F59°F60°F59°F60°F61°F62°F
Pressure 30.24"30.24"30.27"30.27"30.3"30.3"30.3"30.33"30.33"30.33"30.3"30.27"30.24"30.21"30.21"30.21"30.21"30.24"30.24"30.24"30.24"30.24"30.24"30.24"30.24"30.21"30.21"30.18"30.18"30.21"30.21"30.21"30.18"30.18"30.15"30.15"30.12"30.09"30.06"30.03"30.03"30.03"30.03"30.06"30.06"30.06"30.06"30.06"
Wind Speed 4.8 mph5 mph4.8 mph4.8 mph5 mph4.7 mph4.8 mph4.8 mph7.1 mph9.6 mph9.9 mph11 mph10.9 mph10 mph10 mph8.2 mph7 mph7 mph6.7 mph7.8 mph8.1 mph7.8 mph7.2 mph7 mph6.7 mph7 mph7.4 mph7.5 mph8.2 mph8.6 mph9 mph9.6 mph10.9 mph12.2 mph13.3 mph13 mph11.1 mph7.9 mph9.2 mph9.5 mph6.7 mph6.6 mph7.3 mph6.7 mph6.6 mph6.9 mph7 mph6.8 mph
Wind
Direction
69°
ENE
65°
ENE
63°
ENE
64°
ENE
68°
ENE
79°
E
82°
E
83°
E
106°
ESE
116°
ESE
123°
ESE
130°
SE
137°
SE
145°
SE
145°
SE
140°
SE
125°
SE
121°
ESE
121°
ESE
122°
ESE
123°
ESE
124°
SE
122°
ESE
119°
ESE
121°
ESE
123°
ESE
127°
SE
129°
SE
135°
SE
146°
SE
150°
SSE
150°
SSE
153°
SSE
160°
SSE
164°
SSE
171°
S
179°
S
177°
S
178°
S
169°
S
174°
S
160°
SSE
163°
SSE
164°
SSE
180°
S
188°
S
201°
SSW
213°
SSW

Daily Forecast

Date High Low Precip. Humidity
Today
Nov 24

Clouds
60 °F
37 °F
0%
43%
Wednesday
Nov 25

Rain
66 °F
49 °F
89%
70%
Thursday
Nov 26

Rain
70 °F
59 °F
100%
87%
Friday
Nov 27

Rain
71 °F
54 °F
99%
69%
Saturday
Nov 28

Rain
65 °F
55 °F
100%
79%
Sunday
Nov 29

Rain
57 °F
45 °F
100%
95%
Monday
Nov 30

Clouds
42 °F
28 °F
5%
67%
Tuesday
Dec 1

Clear
43 °F
24 °F
0%
51%
Wednesday
Dec 2

Rain
50 °F
28 °F
100%
48%
Thursday
Dec 3

Rain
37 °F
33 °F
100%
87%
Friday
Dec 4

Clouds
40 °F
31 °F
21%
69%
Saturday
Dec 5

Clear
47 °F
28 °F
0%
53%
Sunday
Dec 6

Clear
51 °F
31 °F
0%
51%
Monday
Dec 7

Clouds
53 °F
33 °F
0%
52%
Tuesday
Dec 8

Clouds
56 °F
40 °F
0%
67%
Wednesday
Dec 9

Clouds
56 °F
45 °F
0%
78%


Temperature 8-14 Day Outlook



Precipitation 8-14 Day Outlook




Quick Links
Weiss Lake News
Weiss Lake Photos
Weiss Lake Videos




About Us
Contact Us
Site Map
Search Site
Advertise With Us
   
www.LakeWeiss.info
THE WEISS LAKE WEBSITE

Copyright 2020, Lakes Online
Privacy    |    Legal